Location: Crescent
(42.8242°N, 73.7329°W)
Time: 08:03:05
(UTC+00:00)

Vanguard 1 - Pass Details

Date: 24 February 2026
Orbit: 653 x 3818 km, 34.2° (Epoch: 12 March)

Event Time Altitude Azimuth Distance (km) Brightness Sun altitude
Rises 21:34:58 0° 265° (W) 4,662 15.1 10.2°
Reaches altitude 10° 21:37:32 10° 261° (W) 3,988 15.3 9.8°
Maximum altitude 21:48:35 58° 186° (S) 2,834 12.7 7.9°
Drops below altitude 10° 22:08:01 10° 115° (ESE) 6,627 13.9 4.5°
Sets 22:13:49 0° 112° (ESE) 7,858 14.2 3.5°
